Weather History for Cecil Field, FL

Change the Weather History Date:

Saturday, July 6, 2013

  Actual Average (KJAX) Record (KJAX)
Temperature  
Mean Temperature 79 °F 82 °F  
Max Temperature 87 °F 92 °F 100 °F (1969)
Min Temperature 71 °F 72 °F 66 °F (1986)
Degree Days  
Heating Degree Days 0 0  
Month to date heating degree days 0  
Since 1 June heating degree days 0  
Since 1 July heating degree days 0  
Cooling Degree Days 14 17  
Month to date cooling degree days 102  
Year to date cooling degree days 1035  
Since 1 June cooling degree days 551  
Growing Degree Days 29 (Base 50)    
Moisture  
Dew Point 73 °F    
Average Humidity 87    
Maximum Humidity 100    
Minimum Humidity 58    
Precipitation  
Precipitation 0.00 in 0.21 in 3.49 in (1886)
Month to date precipitation 1.27  
Year to date precipitation 23.28  
Snow  
Snow 0.00 in 0.00 in 0.00 in (2002)
Month to date snowfall 0.0  
Since 1 June snowfall 0.0  
Since 1 July snowfall 0.0  
Snow Depth -    
Sea Level Pressure  
Sea Level Pressure 30.13 in    
Wind  
Wind Speed 3 mph (ESE)    
Max Wind Speed 18 mph    
Max Gust Speed -    
Visibility 9 miles    
Events      
T = Trace of Precipitation, MM = Missing Value Source: NWS Daily Summary

Daily Weather History Graph

Daily Weather History Graph

Search for Another Location

Airport:

Trip Planner

Search our weather history database for the weather conditions in past years. The results will help you decide how hot, cold, wet, or windy it might be!

Date:

Astronomy

Jul. 06, 2013 Rise Set
Actual Time 6:31 AM EDT 8:32 PM EDT
Civil Twilight 6:04 AM EDT 9:00 PM EDT
Nautical Twilight 5:31 AM EDT 9:33 PM EDT
Astronomical Twilight 4:55 AM EDT 10:08 PM EDT
Moon 5:13 AM EDT (7/6) 7:17 PM EDT (7/6)
Length of Visible Light 14h 55m
Length of Day
14h 01m
Waning Crescent, 2% of the Moon is Illuminated
Jul 6
Waning Crescent
Jul 8
New
Jul 15
First Quarter
Jul 22
Full
Jul 29
Last Quarter

Hourly Weather History & Observations

Time (EDT) Temp. Heat Index Dew Point Humidity Pressure Visibility Wind Dir Wind Speed Gust Speed Precip Events Conditions
12:15 AM 75.2 °F - 73.4 °F 94% 30.16 in 10.0 mi Calm Calm - N/A   Clear
12:35 AM 75.2 °F - 73.4 °F 94% 30.16 in 10.0 mi Calm Calm - N/A   Clear
12:55 AM 75.2 °F - 73.4 °F 94% 30.16 in 9.0 mi Calm Calm - N/A   Clear
1:15 AM 75.2 °F - 73.4 °F 94% 30.15 in 9.0 mi Calm Calm - N/A   Clear
1:35 AM 73.4 °F - 73.4 °F 100% 30.15 in 8.0 mi Calm Calm - N/A   Clear
1:55 AM 73.4 °F - 73.4 °F 100% 30.15 in 8.0 mi Calm Calm - N/A   Clear
2:15 AM 73.4 °F - 73.4 °F 100% 30.14 in 7.0 mi Calm Calm - N/A   Clear
2:35 AM 73.4 °F - 73.4 °F 100% 30.14 in 6.0 mi Calm Calm - N/A   Clear
2:55 AM 71.6 °F - 71.6 °F 100% 30.14 in 6.0 mi Calm Calm - N/A   Clear
3:15 AM 71.6 °F - 71.6 °F 100% 30.13 in 5.0 mi Calm Calm - N/A   Clear
3:35 AM 71.6 °F - 71.6 °F 100% 30.13 in 4.0 mi Calm Calm - N/A   Clear
3:55 AM 71.6 °F - 71.6 °F 100% 30.12 in 5.0 mi Calm Calm - N/A   Clear
4:15 AM 73.4 °F - 73.4 °F 100% 30.12 in 7.0 mi Calm Calm - N/A   Clear
4:35 AM 73.4 °F - 73.4 °F 100% 30.12 in 7.0 mi Calm Calm - N/A   Clear
4:55 AM 73.4 °F - 73.4 °F 100% 30.12 in 7.0 mi Calm Calm - N/A   Clear
5:15 AM 73.4 °F - 73.4 °F 100% 30.12 in 7.0 mi Calm Calm - N/A   Clear
5:35 AM 73.4 °F - 73.4 °F 100% 30.12 in 7.0 mi Calm Calm - N/A   Clear
5:55 AM 73.4 °F - 73.4 °F 100% 30.12 in 7.0 mi ESE 3.5 mph - N/A   Clear
6:15 AM 73.4 °F - 73.4 °F 100% 30.12 in 7.0 mi Calm Calm - N/A   Clear
6:35 AM 73.4 °F - 73.4 °F 100% 30.13 in 5.0 mi Calm Calm - N/A   Clear
6:50 AM 73.4 °F - 73.4 °F 100% 30.12 in 7.0 mi Calm Calm - N/A   Clear
7:50 AM 75.2 °F - 75.2 °F 100% 30.14 in 10.0 mi ESE 5.8 mph - N/A   Clear
8:50 AM 80.6 °F 86.2 °F 75.2 °F 84% 30.15 in 10.0 mi ESE 8.1 mph - N/A   Clear
9:50 AM 82.4 °F 89.5 °F 75.2 °F 79% 30.15 in 10.0 mi SE 9.2 mph - N/A   Scattered Clouds
10:50 AM 84.2 °F 90.9 °F 73.4 °F 70% 30.16 in 10.0 mi ESE 11.5 mph - N/A   Scattered Clouds
11:50 AM 86.0 °F 93.4 °F 73.4 °F 66% 30.16 in 10.0 mi SE 9.2 mph - N/A   Scattered Clouds
12:50 PM 86.0 °F 93.4 °F 73.4 °F 66% 30.15 in 10.0 mi SE 11.5 mph - N/A   Scattered Clouds
1:50 PM 87.8 °F 93.8 °F 71.6 °F 58% 30.13 in 10.0 mi ESE 11.5 mph - N/A   Scattered Clouds
2:50 PM 86.0 °F 93.4 °F 73.4 °F 66% 30.12 in 10.0 mi ESE 13.8 mph - N/A   Scattered Clouds
3:50 PM 86.0 °F 93.4 °F 73.4 °F 66% 30.10 in 10.0 mi ESE 15.0 mph - N/A   Scattered Clouds
4:50 PM 87.8 °F 95.6 °F 73.4 °F 62% 30.09 in 10.0 mi SSE 17.3 mph - N/A   Scattered Clouds
5:50 PM 86.0 °F 95.1 °F 75.2 °F 70% 30.09 in 10.0 mi ESE 18.4 mph - N/A   Scattered Clouds
6:50 PM 84.2 °F 90.9 °F 73.4 °F 70% 30.08 in 10.0 mi ESE 11.5 mph - N/A   Clear
7:50 PM 82.4 °F 88.2 °F 73.4 °F 74% 30.09 in 10.0 mi ESE 11.5 mph - N/A   Clear
8:15 PM 80.6 °F 85.4 °F 73.4 °F 79% 30.10 in 10.0 mi Calm Calm - N/A   Clear
8:35 PM 80.6 °F 85.4 °F 73.4 °F 79% 30.10 in 10.0 mi Calm Calm - N/A   Clear
8:55 PM 80.6 °F 85.4 °F 73.4 °F 79% 30.11 in 10.0 mi East 4.6 mph - N/A   Clear
9:15 PM 78.8 °F - 73.4 °F 83% 30.12 in 10.0 mi East 3.5 mph - N/A   Clear
9:35 PM 78.8 °F - 73.4 °F 83% 30.12 in 10.0 mi ESE 4.6 mph - N/A   Clear
9:55 PM 78.8 °F - 73.4 °F 83% 30.13 in 10.0 mi East 3.5 mph - N/A   Clear
10:15 PM 78.8 °F - 73.4 °F 83% 30.13 in 10.0 mi ESE 3.5 mph - N/A   Clear
10:35 PM 77.0 °F - 73.4 °F 89% 30.14 in 10.0 mi SE 4.6 mph - N/A   Clear
10:55 PM 77.0 °F - 73.4 °F 89% 30.14 in 10.0 mi Calm Calm - N/A   Clear
11:15 PM 77.0 °F - 73.4 °F 89% 30.14 in 10.0 mi Calm Calm - N/A   Clear
11:35 PM 77.0 °F - 73.4 °F 89% 30.15 in 8.0 mi Calm Calm - N/A   Clear
11:55 PM 77.0 °F - 73.4 °F 89% 30.15 in 10.0 mi Calm Calm - N/A   Clear